Regional Weather Roundup
Issued by NWS

Home | Current Version | Previous Version | Text Only | Print | Product List | Glossary On
Versions: 1 2 3 4 5 6 7 8 9 10 11 12 13 14 15 16 17 18 19 20 21 22 23 24 25 26 27 28 29 30 31 32 33 34 35 36 37 38 39 40 41 42 43 44 45 46 47 48 49 50
000
ASUS44 KJAN 221410
RWRMS

MISSISSIPPI HOURLY WEATHER ROUNDUP
NATIONAL WEATHER SERVICE JACKSON MS
900 AM CDT TUE JUL 22 2014

NOTE: "FAIR: INDICATES FEW OR NO CLOUDS BELOW 12,000 FEET WITH NO
SIGNIFICANT WEATHER AND/OR OBSTRUCTIONS TO VISIBILITY.

MSZ001>002-007>008-010>013-018>021-025>028-034>036-221500-
NORTHWEST MISSISSIPPI

CITY           SKY/WX    TMP DP  RH WIND       PRES   REMARKS
CLARKSDALE     FAIR      77  73  88 CALM      30.09S
CLEVELAND      FAIR      78  73  83 NE5       30.07S
GREENWOOD      SUNNY     80  70  71 NE6       30.07S
GREENVILLE     SUNNY     79  72  79 N6        30.08R
GRENADA        FAIR      79  68  69 E7        30.08S
OXFORD         FAIR      77  68  73 CALM      30.11S
TUNICA         SUNNY     79  70  73 E5        30.09S
$$

MSZ003>006-009-014>017-022>024-029>033-037>039-221500-
NORTHEAST MISSISSIPPI

CITY           SKY/WX    TMP DP  RH WIND       PRES   REMARKS
BELMONT        FAIR      76  73  89 E3        30.11R
COLUMBUS AFB   MOSUNNY   75  73  93 E2        30.10R
CORINTH        FAIR      77  70  78 CALM      30.10S
GOLDN TRIANGLE MOSUNNY   75  72  88 N3        30.10R FOG
STARKVILLE     FAIR      75  72  88 CALM      30.08S
TUPELO         SUNNY     79  71  76 NE5       30.09R
$$

MSZ040-058-221500-
CENTRAL MISSISSIPPI

CITY           SKY/WX    TMP DP  RH WIND       PRES   REMARKS
JACKSON INTL   PTSUNNY   79  71  76 NE5       30.07R
JACKSON HAWKNS MOSUNNY   77  69  76 CALM      30.08R
MERIDIAN KEY   CLOUDY    77  73  87 NE5       30.07R
MERIDIAN NAS   CLOUDY    76  72  87 E6        30.09R
RAYMOND        FAIR      77  72  83 NE3       30.07S
VICKSBURG      SUNNY     80  72  76 NE5       30.07R
$$

MSZ059>079-221500-
SOUTH MISSISSIPPI

CITY           SKY/WX    TMP DP  RH WIND       PRES   REMARKS
BROOKHAVEN     FAIR      73  72  94 CALM      30.08S FOG
COLUMBIA       FAIR      79  73  83 CALM      30.04S
HATTIESBURG    PTSUNNY   81  73  76 E3        30.05S
MCCOMB         MOSUNNY   75  70  84 VRB3      30.06R
NATCHEZ        SUNNY     77  72  83 NE3       30.07S
PINE BELT      MOSUNNY   79  70  73 E5        30.07S
$$

MSZ080>082-221500-
COASTAL MISSISSIPPI

CITY           SKY/WX    TMP DP  RH WIND       PRES   REMARKS
BAY ST LOUIS   SUNNY    N/A N/A N/A CALM      30.03F
BILOXI         SUNNY     82  73  74 NW1       30.03S
PASCAGOULA     SUNNY     82  72  71 CALM      30.04R
GULFPORT       MOSUNNY   85  71  63 NW5       30.03R HX  90
$$



USA.gov is the U.S. government's official web portal to all federal, state and local government web resources and services.